Weather History for Key West NAF, FL

Change the Weather History Date:

Friday, October 12, 2012

  Actual Average Record
Temperature  
Mean Temperature 28 °C -  
Max Temperature 31 °C 29 °C 32 °C (1950)
Min Temperature 26 °C 24 °C 21 °C (1987)
Cooling Degree Days 18    
Growing Degree Days 32 (Base 50)    
Moisture  
Dew Point 19 °C    
Average Humidity 60    
Maximum Humidity 72    
Minimum Humidity 49    
Precipitation  
Precipitation 0.00 mm - - ()
Sea Level Pressure  
Sea Level Pressure 1018 hPa    
Wind  
Wind Speed 19 km/h (NE)    
Max Wind Speed 26 km/h    
Max Gust Speed 35 km/h    
Visibility 16 kilometers    
Events      
Averages and records for this station are not official NWS values.
T = Trace of Precipitation, MM = Missing Value Source: NWS Daily Summary

Daily Weather History Graph

Daily Weather History Graph

Search for Another Location

Airport:

Trip Planner

Search our weather history database for the weather conditions in past years. The results will help you decide how hot, cold, wet, or windy it might be!

Date:

Astronomy

Oct. 12, 2012 Rise Set
Actual Time 7:23 AM EDT 7:02 PM EDT
Civil Twilight 7:00 AM EDT 7:25 PM EDT
Nautical Twilight 6:34 AM EDT 7:51 PM EDT
Astronomical Twilight 6:07 AM EDT 8:18 PM EDT
Moon 4:22 AM EDT (10/12) 4:57 PM EDT (10/12)
Length of Visible Light 12h 24m
Length of Day
11h 38m
Waning Crescent, 11% of the Moon is Illuminated
Oct 12
Waning Crescent
Oct 15
New
Oct 21
First Quarter
Oct 29
Full
Nov 6
Last Quarter

Hourly Weather History & Observations

Time (EDT) Temp. Heat Index Dew Point Humidity Pressure Visibility Wind Dir Wind Speed Gust Speed Precip Events Conditions
12:53 AM 26.7 °C 28.0 °C 19.4 °C 64% 1018.0 hPa 16.1 km NE 24.1 km/h / 6.7 m/s 33.3 km/h / 9.3 m/s N/A   Partly Cloudy
1:53 AM 26.7 °C 28.0 °C 19.4 °C 64% 1017.7 hPa 16.1 km NE 16.7 km/h / 4.6 m/s 27.8 km/h / 7.7 m/s N/A   Partly Cloudy
2:53 AM 26.7 °C 28.2 °C 20.0 °C 67% 1017.3 hPa 16.1 km NE 16.7 km/h / 4.6 m/s 29.6 km/h / 8.2 m/s N/A   Partly Cloudy
3:53 AM 26.1 °C - 20.6 °C 72% 1017.0 hPa 16.1 km NE 20.4 km/h / 5.7 m/s 31.5 km/h / 8.7 m/s N/A   Partly Cloudy
4:53 AM 26.1 °C - 20.0 °C 69% 1017.0 hPa 16.1 km NE 18.5 km/h / 5.1 m/s 31.5 km/h / 8.7 m/s N/A   Clear
5:53 AM 26.1 °C - 20.0 °C 69% 1017.4 hPa 16.1 km NE 13.0 km/h / 3.6 m/s - N/A   Partly Cloudy
6:05 AM 26.0 °C - 20.0 °C 69% 1017.5 hPa 16.1 km NE 18.5 km/h / 5.1 m/s - N/A   Partly Cloudy
6:53 AM 26.1 °C - 19.4 °C 66% 1018.0 hPa 16.1 km NE 16.7 km/h / 4.6 m/s 29.6 km/h / 8.2 m/s N/A   Partly Cloudy
7:53 AM 26.1 °C - 19.4 °C 66% 1018.6 hPa 16.1 km NNE 20.4 km/h / 5.7 m/s - N/A   Scattered Clouds
8:53 AM 27.2 °C 28.8 °C 20.0 °C 65% 1019.0 hPa 16.1 km NE 18.5 km/h / 5.1 m/s - N/A   Scattered Clouds
9:53 AM 28.3 °C 29.9 °C 20.0 °C 60% 1019.4 hPa 16.1 km NNE 22.2 km/h / 6.2 m/s 35.2 km/h / 9.8 m/s N/A   Scattered Clouds
10:53 AM 28.9 °C 30.6 °C 20.0 °C 58% 1019.6 hPa 16.1 km NE 24.1 km/h / 6.7 m/s 29.6 km/h / 8.2 m/s N/A   Scattered Clouds
11:53 AM 28.9 °C 30.6 °C 20.0 °C 58% 1019.5 hPa 16.1 km NE 24.1 km/h / 6.7 m/s 33.3 km/h / 9.3 m/s N/A   Scattered Clouds
12:53 PM 29.4 °C 31.6 °C 20.6 °C 59% 1018.9 hPa 16.1 km NE 16.7 km/h / 4.6 m/s 31.5 km/h / 8.7 m/s N/A   Scattered Clouds
1:53 PM 29.4 °C 30.9 °C 19.4 °C 55% 1018.2 hPa 16.1 km NE 24.1 km/h / 6.7 m/s 33.3 km/h / 9.3 m/s N/A   Scattered Clouds
2:53 PM 30.6 °C 31.8 °C 18.9 °C 49% 1017.5 hPa 16.1 km NNE 20.4 km/h / 5.7 m/s - N/A   Partly Cloudy
3:53 PM 30.0 °C 31.9 °C 20.0 °C 55% 1017.2 hPa 16.1 km NNE 20.4 km/h / 5.7 m/s - N/A   Scattered Clouds
4:53 PM 30.0 °C 31.5 °C 19.4 °C 53% 1016.9 hPa 16.1 km NNE 18.5 km/h / 5.1 m/s - N/A   Partly Cloudy
5:53 PM 29.4 °C 30.1 °C 17.8 °C 49% 1017.1 hPa 16.1 km NNE 18.5 km/h / 5.1 m/s - N/A   Partly Cloudy
6:53 PM 28.3 °C 29.4 °C 18.9 °C 56% 1017.4 hPa 16.1 km NE 18.5 km/h / 5.1 m/s 25.9 km/h / 7.2 m/s N/A   Partly Cloudy
7:53 PM 28.3 °C 28.9 °C 17.2 °C 51% 1017.7 hPa 16.1 km NE 14.8 km/h / 4.1 m/s 25.9 km/h / 7.2 m/s N/A   Clear
8:53 PM 27.8 °C 28.8 °C 18.3 °C 56% 1018.2 hPa 16.1 km NE 14.8 km/h / 4.1 m/s 29.6 km/h / 8.2 m/s N/A   Clear
9:53 PM 27.2 °C 28.0 °C 17.8 °C 56% 1018.6 hPa 16.1 km NE 18.5 km/h / 5.1 m/s 35.2 km/h / 9.8 m/s N/A   Clear
10:53 PM 27.2 °C 27.9 °C 17.2 °C 54% 1019.0 hPa 16.1 km NE 22.2 km/h / 6.2 m/s 35.2 km/h / 9.8 m/s N/A   Clear
11:53 PM 26.7 °C 27.7 °C 18.3 °C 60% 1019.0 hPa 16.1 km NNE 25.9 km/h / 7.2 m/s 33.3 km/h / 9.3 m/s N/A   Clear